Вернуться в каталог

CZ-6A DEB

АктивенPO
NORAD 61806·DEBRIS·🇨🇳 China

Запущен Aug 6, 2024 с Taiyuan Satellite Launch Center

Loading…

Ближайшие Пролёты (ближайшие 24 часа)

TLE

СвежийSource: Space-Track

Эпоха: Sep 13, 2026, 09:04 UTC

1 61806U 24140ABW 26256.37794189  .00000296  00000-0  23295-3 0  9992
2 61806  88.4887 229.4839 0307698  82.5459 281.0547 13.68822087101182

Отслеживайте CZ-6A DEB в реальном времени с AllMySat

Download on the App Store